This is the latest recevied weather packets stored in our database for station/object DL9GRB-13. If no packets are shown the sender has not sent any weather packets the latest 1 day(s).
| Time | Temp. | Humidity | Pressure | Rain* | Wind** | Luminosity | Snow |
|---|---|---|---|---|---|---|---|
| 1777967888 | 9.44° C | 94% | 1010.3 hPa | 0 mm | 8.49 m/s, 29° | 96 W/m² | - |
| 1777967708 | 9.44° C | 94% | 1010.1 hPa | 0.51 mm | 6.26 m/s, 3° | 104 W/m² | - |
| 1777967528 | 9.44° C | 95% | 1010.3 hPa | 0.51 mm | 3.13 m/s, 5° | 101 W/m² | - |
| 1777967348 | 9.44° C | 95% | 1010.2 hPa | 0.51 mm | 5.81 m/s, 337° | 106 W/m² | - |
| 1777967168 | 9.44° C | 95% | 1010.3 hPa | 0.51 mm | 2.24 m/s, 62° | 101 W/m² | - |
| 1777966988 | 9.44° C | 95% | 1010.2 hPa | 0.51 mm | 1.79 m/s, 168° | 76 W/m² | - |
| 1777966808 | 9.44° C | 95% | 1010.3 hPa | 0.51 mm | 3.13 m/s, 352° | 78 W/m² | - |
| 1777966628 | 9.44° C | 95% | 1010.5 hPa | 0 mm | 0 m/s | 76 W/m² | - |
| 1777966448 | 9.44° C | 95% | 1010.4 hPa | 0 mm | 2.68 m/s, 351° | 88 W/m² | - |
| 1777966268 | 9.44° C | 95% | 1010.3 hPa | 0.51 mm | 8.05 m/s, 19° | 90 W/m² | - |
| 1777966088 | 9.44° C | 95% | 1010.3 hPa | 0.51 mm | 6.71 m/s, 34° | 73 W/m² | - |
| 1777965908 | 9.44° C | 95% | 1010.2 hPa | 0.51 mm | 3.13 m/s, 8° | 39 W/m² | - |
| 1777965728 | 9.44° C | 95% | 1010.5 hPa | 0.51 mm | 4.92 m/s, 44° | 42 W/m² | - |
| 1777965548 | 9.44° C | 95% | 1010.4 hPa | 0.51 mm | 3.58 m/s, 66° | 43 W/m² | - |
| 1777965368 | 9.44° C | 95% | 1010.5 hPa | 1.27 mm | 1.79 m/s, 64° | 51 W/m² | - |
| 1777965188 | 9.44° C | 95% | 1010.3 hPa | 0.51 mm | 3.58 m/s, 113° | 55 W/m² | - |
| 1777965008 | 9.44° C | 95% | 1010.3 hPa | 1.27 mm | 2.68 m/s, 13° | 64 W/m² | - |
| 1777964828 | 9.44° C | 95% | 1010.4 hPa | 0.51 mm | 6.71 m/s, 120° | 50 W/m² | - |
| 1777964648 | 9.44° C | 95% | 1010.5 hPa | 0.51 mm | 3.13 m/s, 357° | 59 W/m² | - |
| 1777964468 | 9.44° C | 95% | 1010.3 hPa | 0 mm | 4.92 m/s, 66° | 69 W/m² | - |
| 1777964288 | 9.44° C | 95% | 1010.5 hPa | 0 mm | 4.92 m/s, 77° | 72 W/m² | - |
| 1777964108 | 9.44° C | 95% | 1010.3 hPa | 0.51 mm | 4.02 m/s, 126° | 63 W/m² | - |
| 1777963928 | 9.44° C | 95% | 1010.5 hPa | 0.51 mm | 8.49 m/s, 111° | 68 W/m² | - |
| 1777963748 | 9.44° C | 95% | 1010.3 hPa | 0.51 mm | 2.68 m/s, 15° | 73 W/m² | - |
| 1777963568 | 9.44° C | 95% | 1010.2 hPa | 0 mm | 6.71 m/s, 6° | 75 W/m² | - |
* Rain latest hour (hover to see other rain measurements)
** Current wind speed in m/s (hover to see current wind gust speed)